period_start,C,m1,H,J0,J1,J2,J3,J4,J5,JA,JB,JC,JD,JJ,JK,JN,#
2015-05-16 00:01:08,0.00,0.41,0.00,23.37,27.25,30.05,4.81,26.52,1017.59,2034.97,3299.00,3203.01,3472.00,350.13,347.61,5.24,0000 0000 0000 0000 000000
2015-05-16 00:06:09,0.02,0.41,0.00,23.38,27.25,30.04,4.81,26.60,1017.59,2034.94,3298.53,3202.99,3471.91,349.45,347.05,5.27,0000 0000 0000 0000 000000
2015-05-16 00:11:11,0.06,0.41,0.00,23.40,27.25,30.04,4.83,26.61,1017.59,2034.94,3298.01,3202.47,3471.17,350.08,347.50,5.30,0000 0000 0000 0000 000000
2015-05-16 00:16:12,0.03,0.41,0.00,23.40,27.25,30.05,4.87,26.57,1017.59,2034.95,3297.51,3202.05,3471.00,350.51,348.06,5.33,0000 0000 0000 0000 000000
2015-05-16 00:21:13,0.01,0.41,0.00,23.43,27.25,30.04,4.73,26.54,1017.60,2034.95,3297.01,3202.00,3470.94,349.74,347.23,5.36,0000 0000 0000 0000 000000
2015-05-16 00:26:14,0.04,0.41,0.00,23.45,27.25,30.03,4.77,26.57,1017.61,2034.93,3296.63,3201.79,3470.31,349.96,347.45,5.39,0000 0000 0000 0000 000000
2015-05-16 00:31:16,0.06,0.41,0.00,23.47,27.25,30.03,4.80,26.58,1017.60,2034.78,3295.41,3200.96,3469.51,349.48,346.96,5.42,0000 0000 0000 0000 000000
2015-05-16 00:36:17,0.14,0.41,0.00,23.48,27.25,30.02,4.81,26.62,1017.60,2034.76,3293.66,3199.77,3468.47,350.42,347.87,5.45,0000 0000 0000 0000 000000
2015-05-16 00:41:18,0.67,0.43,0.00,23.51,27.25,30.02,4.76,26.67,1017.61,2034.69,3286.66,3195.26,3463.64,350.08,347.42,5.48,0000 0000 0000 0000 000000
2015-05-16 00:46:19,0.59,0.45,0.00,23.52,27.25,30.02,4.86,26.69,1017.61,2034.83,3277.96,3189.51,3457.46,350.29,347.70,5.51,0000 0000 0000 0000 000000
2015-05-16 00:51:20,0.36,0.46,0.00,23.55,27.25,30.00,4.71,26.63,1017.63,2034.87,3272.42,3185.87,3453.74,349.95,347.65,5.54,0000 0000 0000 0000 000000
2015-05-16 00:56:21,0.13,0.47,0.00,23.57,27.25,29.99,4.66,26.57,1017.62,2034.85,3270.07,3184.24,3452.18,349.14,346.59,5.57,0000 0000 0000 0000 000000
2015-05-16 01:01:23,0.04,0.47,0.00,23.59,27.25,30.00,4.81,26.55,1017.62,2034.94,3269.11,3184.00,3451.88,350.10,347.53,5.60,0000 0000 0000 0000 000000
2015-05-16 01:06:24,0.03,0.47,0.00,23.60,27.25,30.00,4.78,26.61,1017.61,2034.95,3268.99,3183.89,3451.25,350.26,347.61,5.62,0000 0000 0000 0000 000000
2015-05-16 01:11:25,0.05,0.47,0.00,23.61,27.25,30.02,4.70,26.61,1017.61,2034.96,3268.35,3183.26,3451.02,349.74,347.09,5.65,0000 0000 0000 0000 000000
2015-05-16 01:16:27,0.01,0.47,0.00,23.62,27.25,29.99,4.84,26.63,1017.61,2034.94,3267.90,3182.99,3450.83,350.49,347.78,5.68,0000 0000 0000 0000 000000
2015-05-16 01:21:28,0.04,0.47,0.00,23.64,27.25,29.97,4.75,26.58,1017.63,2034.97,3267.24,3182.96,3450.23,349.82,347.06,5.71,0000 0000 0000 0000 000000
2015-05-16 01:26:29,0.03,0.47,0.00,23.66,27.25,29.94,4.79,26.60,1017.65,2034.96,3266.99,3182.38,3450.01,350.37,347.75,5.74,0000 0000 0000 0000 000000
2015-05-16 01:31:31,0.03,0.48,0.00,23.69,27.25,29.95,4.75,26.57,1017.66,2034.96,3266.38,3182.01,3449.97,350.15,347.42,5.77,0000 0000 0000 0000 000000
2015-05-16 01:36:32,0.00,0.48,0.00,23.71,27.25,29.92,4.79,26.62,1017.65,2034.94,3266.01,3182.00,3449.72,350.25,347.24,5.80,0000 0000 0000 0000 000000
2015-05-16 01:41:33,0.01,0.48,0.00,23.72,27.25,29.93,4.83,26.61,1017.63,2034.89,3265.78,3181.92,3449.51,350.22,347.32,5.83,0000 0000 0000 0000 000000
2015-05-16 01:46:35,0.06,0.48,0.00,23.73,27.25,29.92,4.65,26.52,1017.62,2034.92,3265.08,3181.35,3449.00,348.86,346.21,5.86,0000 0000 0000 0000 000000
2015-05-16 01:51:36,0.05,0.48,0.00,23.76,27.25,29.89,4.68,26.58,1017.62,2034.91,3264.56,3181.00,3448.53,349.69,346.95,5.89,0000 0000 0000 0000 000000
2015-05-16 01:56:37,0.04,0.48,0.00,23.78,27.25,29.90,4.73,26.57,1017.60,2034.93,3263.91,3180.58,3448.01,349.98,347.09,5.92,0000 0000 0000 0000 000000
2015-05-16 02:01:39,0.06,0.48,0.00,23.80,27.26,29.86,4.75,26.67,1017.61,2034.91,3263.08,3180.01,3447.46,350.10,347.26,5.95,0000 0000 0000 0000 000000
2015-05-16 02:06:40,0.06,0.48,0.00,23.82,27.27,29.86,4.71,26.57,1017.61,2034.92,3262.45,3179.59,3446.99,350.17,347.03,5.98,0000 0000 0000 0000 000000
2015-05-16 02:11:41,0.06,0.49,0.00,23.83,27.27,29.88,4.76,26.57,1017.60,2034.94,3261.45,3178.98,3446.24,350.12,347.17,6.01,0000 0000 0000 0000 000000
2015-05-16 02:16:42,0.08,0.49,0.00,23.86,27.27,29.86,4.81,26.61,1017.62,2034.96,3260.63,3178.26,3445.76,350.34,347.20,6.03,0000 0000 0000 0000 000000
2015-05-16 02:21:43,0.08,0.49,0.00,23.87,27.27,29.85,4.79,26.57,1017.62,2034.93,3259.43,3177.61,3444.87,349.84,346.85,6.06,0000 0000 0000 0000 000000
2015-05-16 02:26:44,0.14,0.49,0.00,23.88,27.27,29.87,4.74,26.57,1017.64,2034.91,3257.58,3176.40,3443.58,350.12,346.97,6.09,0000 0000 0000 0000 000000
2015-05-16 02:31:46,0.10,0.50,0.00,23.90,27.29,29.86,4.79,26.55,1017.69,2034.83,3255.98,3175.31,3442.47,350.35,347.35,6.12,0000 0000 0000 0000 000000
2015-05-16 02:36:47,0.07,0.50,0.00,23.91,27.30,29.86,4.72,26.63,1017.64,2034.66,3254.51,3174.40,3441.63,350.01,346.98,6.15,0000 0000 0000 0000 000000
2015-05-16 02:41:49,0.11,0.50,0.00,23.94,27.30,29.85,4.91,26.74,1017.65,2034.56,3253.20,3173.47,3440.53,350.98,347.76,6.18,0000 0000 0000 0000 000000
2015-05-16 02:46:50,0.01,0.50,0.00,23.97,27.30,29.85,4.75,26.64,1017.65,2034.38,3251.90,3172.78,3439.71,350.10,346.85,6.21,0000 0000 0000 0000 000000
2015-05-16 02:51:51,0.06,0.51,0.00,23.98,27.31,29.85,4.79,26.66,1017.67,2034.26,3251.05,3172.05,3439.04,350.36,347.34,6.24,0000 0000 0000 0000 000000
2015-05-16 02:56:52,0.04,0.51,0.00,23.97,27.32,29.84,4.78,26.67,1017.66,2034.21,3250.42,3171.96,3438.61,349.86,346.60,6.27,0000 0000 0000 0000 000000
2015-05-16 03:01:54,0.03,0.51,0.00,23.97,27.32,29.86,4.71,26.68,1017.66,2034.12,3249.84,3171.30,3438.03,349.64,346.62,6.30,0000 0000 0000 0000 000000
2015-05-16 06:03:31,-3333.30,0.00,0.00,19.73,23.21,21.01,4.67,25.37,1017.84,2052.61,3537.88,3352.68,3645.73,342.87,345.02,0.00,0000 0000 0000 0000 000000
2015-05-16 06:08:32,0.00,0.00,0.00,19.81,23.04,22.25,4.75,25.44,1018.09,2050.98,3532.07,3348.76,3641.77,350.29,352.50,0.03,0000 0000 0000 0000 000000
2015-05-16 06:13:33,0.02,0.00,0.00,20.00,22.89,23.09,4.81,25.44,1018.28,2050.99,3530.16,3347.70,3640.61,350.17,351.93,0.06,0000 0000 0000 0000 000000
2015-05-16 06:18:35,0.06,0.00,0.00,20.16,22.78,23.83,4.76,25.44,1018.55,2051.39,3528.50,3346.87,3639.78,350.22,351.78,0.09,0000 0000 0000 0000 000000
2015-05-16 06:23:36,0.14,0.01,0.00,20.33,22.71,24.27,4.78,25.20,1018.57,2051.96,3526.32,3345.69,3638.27,350.05,351.65,0.12,0000 0000 0000 0000 000000
2015-05-16 06:28:37,0.12,0.02,0.00,20.61,22.69,24.46,4.82,25.17,1018.58,2051.99,3524.72,3344.75,3636.92,349.84,351.04,0.15,0000 0000 0000 0000 000000
2015-05-16 06:33:38,0.10,0.02,0.00,20.87,22.70,24.74,4.75,24.93,1018.65,2052.01,3523.23,3343.79,3635.96,349.94,350.84,0.18,0000 0000 0000 0000 000000
2015-05-16 06:38:40,0.07,0.02,0.00,21.19,22.75,25.14,4.79,24.99,1018.99,2052.01,3522.03,3342.92,3634.96,349.84,350.35,0.21,0000 0000 0000 0000 000000
2015-05-16 06:43:41,0.17,0.03,0.00,21.52,22.83,25.67,4.82,25.03,1019.06,2052.01,3520.33,3341.50,3633.38,349.94,350.23,0.24,0000 0000 0000 0000 000000
2015-05-16 06:48:42,0.06,0.03,0.00,21.77,22.95,26.05,4.76,24.93,1019.07,2052.00,3519.30,3340.86,3632.48,350.12,350.13,0.27,0000 0000 0000 0000 000000
2015-05-16 06:53:44,0.05,0.03,0.00,22.18,23.08,26.47,4.77,25.00,1019.07,2051.94,3518.68,3340.06,3631.60,349.75,349.20,0.30,0000 0000 0000 0000 000000
2015-05-16 06:58:45,-0.04,0.03,0.00,22.40,23.25,26.82,4.76,25.11,1019.21,2051.23,3517.70,3339.10,3630.51,350.68,350.03,0.33,0000 0000 0000 0000 000000
2015-05-16 07:03:46,0.09,0.03,0.00,22.76,23.42,27.15,4.69,24.96,1019.48,2050.99,3516.68,3338.03,3629.29,349.46,348.32,0.35,0000 0000 0000 0000 000000
2015-05-16 07:08:47,-0.03,0.03,0.00,23.28,23.62,27.47,4.76,25.09,1019.55,2050.25,3515.53,3336.87,3627.95,349.89,348.28,0.38,0000 0000 0000 0000 000000
2015-05-16 07:13:49,0.05,0.03,0.00,23.52,23.82,27.80,4.81,25.13,1019.55,2049.79,3514.19,3335.61,3626.51,350.47,348.39,0.41,0000 0000 0000 0000 000000
2015-05-16 07:18:50,0.04,0.03,0.00,23.44,24.04,28.08,4.72,24.96,1019.56,2049.04,3512.68,3334.28,3624.84,349.84,347.93,0.44,0000 0000 0000 0000 000000
2015-05-16 07:23:51,0.01,0.03,0.00,23.49,24.24,28.24,4.79,24.97,1019.63,2048.26,3511.05,3332.70,3623.15,350.21,348.30,0.47,0000 0000 0000 0000 000000
2015-05-16 07:28:52,0.07,0.04,0.00,23.56,24.45,28.11,4.78,24.91,1019.84,2047.54,3508.80,3330.85,3621.11,350.16,348.30,0.50,0000 0000 0000 0000 000000
2015-05-16 07:33:53,0.09,0.04,0.00,23.58,24.64,28.08,4.75,24.87,1019.98,2047.00,3506.84,3329.20,3619.26,349.92,348.27,0.53,0000 0000 0000 0000 000000
2015-05-16 07:38:55,0.02,0.04,0.00,23.60,24.82,28.15,4.77,24.82,1020.03,2046.58,3505.47,3327.88,3617.73,350.25,348.68,0.56,0000 0000 0000 0000 000000
2015-05-16 07:43:56,0.08,0.04,0.00,23.57,24.98,28.20,4.74,24.84,1020.03,2045.97,3504.00,3326.67,3616.25,350.15,348.33,0.59,0000 0000 0000 0000 000000
2015-05-16 07:48:57,-0.02,0.04,0.00,23.57,25.13,28.27,4.76,24.86,1020.03,2045.17,3502.68,3325.49,3614.89,350.08,348.29,0.62,0000 0000 0000 0000 000000
2015-05-16 07:53:59,0.06,0.04,0.00,23.60,25.27,28.32,4.72,24.76,1020.03,2044.87,3501.57,3324.43,3613.66,350.06,348.21,0.65,0000 0000 0000 0000 000000
2015-05-16 07:59:00,-0.02,0.04,0.00,23.60,25.40,28.37,4.74,24.88,1020.03,2044.08,3500.32,3323.32,3612.41,350.16,348.15,0.68,0000 0000 0000 0000 000000
2015-05-16 08:04:01,0.07,0.05,0.00,23.63,25.53,28.44,4.73,24.84,1020.03,2043.88,3499.07,3322.23,3611.18,350.07,348.12,0.71,0000 0000 0000 0000 000000
2015-05-16 08:09:03,-0.02,0.04,0.00,23.67,25.64,28.50,4.78,24.78,1020.03,2043.14,3497.85,3321.24,3609.93,350.06,348.07,0.74,0000 0000 0000 0000 000000
2015-05-16 08:14:04,0.07,0.05,0.00,23.69,25.75,28.57,4.75,24.78,1020.04,2042.86,3496.69,3320.15,3608.71,350.01,347.97,0.76,0000 0000 0000 0000 000000
2015-05-16 08:19:05,-0.03,0.05,0.00,23.68,25.85,28.63,4.80,24.67,1020.05,2042.08,3495.68,3319.26,3607.71,349.86,348.05,0.79,0000 0000 0000 0000 000000
2015-05-16 08:24:06,0.09,0.05,0.00,23.72,25.94,28.68,4.76,24.70,1020.06,2041.97,3494.61,3318.32,3606.64,350.41,348.43,0.82,0000 0000 0000 0000 000000
2015-05-16 08:29:07,-0.06,0.05,0.00,23.72,26.03,28.74,4.75,24.70,1020.08,2041.38,3493.70,3317.56,3605.82,350.03,348.08,0.85,0000 0000 0000 0000 000000
2015-05-16 08:34:08,0.04,0.05,0.00,23.72,26.11,28.78,4.77,24.78,1020.07,2041.01,3492.88,3316.79,3604.93,350.51,348.53,0.88,0000 0000 0000 0000 000000
2015-05-16 08:39:09,0.05,0.05,0.00,23.76,26.18,28.82,4.68,24.75,1020.08,2040.96,3492.06,3316.03,3604.05,349.78,348.06,0.91,0000 0000 0000 0000 000000
2015-05-16 08:44:10,-0.03,0.05,0.00,23.77,26.25,28.87,4.72,24.65,1020.11,2040.46,3491.29,3315.38,3603.28,349.70,347.67,0.94,0000 0000 0000 0000 000000
2015-05-16 08:49:12,0.04,0.05,0.00,23.77,26.32,28.92,4.70,24.74,1020.08,2040.01,3490.37,3314.71,3602.44,349.73,347.82,0.97,0000 0000 0000 0000 000000
2015-05-16 08:54:13,0.05,0.05,0.00,23.77,26.38,28.97,4.74,24.79,1020.08,2039.98,3489.70,3314.01,3601.73,350.53,348.40,1.00,0000 0000 0000 0000 000000
2015-05-16 08:59:15,-0.04,0.05,0.00,23.80,26.44,29.00,4.67,24.72,1020.13,2039.47,3488.89,3313.17,3600.94,349.75,347.47,1.03,0000 0000 0000 0000 000000
2015-05-16 09:04:16,0.02,0.05,0.00,23.80,26.49,29.05,4.77,24.72,1020.20,2039.03,3488.09,3312.86,3600.12,350.40,348.37,1.06,0000 0000 0000 0000 000000
2015-05-16 09:09:17,0.07,0.05,0.00,23.80,26.54,29.08,4.78,24.77,1020.35,2039.00,3487.41,3312.08,3599.46,350.36,348.39,1.09,0000 0000 0000 0000 000000
2015-05-16 09:14:18,0.04,0.05,0.00,23.84,26.58,29.13,4.80,24.73,1020.33,2038.93,3486.71,3311.59,3598.95,350.17,348.27,1.12,0000 0000 0000 0000 000000
2015-05-16 09:19:20,-0.03,0.05,0.00,23.87,26.62,29.15,4.71,24.72,1020.37,2038.62,3486.02,3311.02,3598.18,350.15,347.89,1.15,0000 0000 0000 0000 000000
2015-05-16 09:24:21,-0.00,0.05,0.00,23.87,26.66,29.19,4.71,24.68,1020.32,2038.07,3485.40,3310.60,3597.79,349.73,347.67,1.17,0000 0000 0000 0000 000000
2015-05-16 09:29:22,0.02,0.05,0.00,23.88,26.70,29.23,4.85,24.74,1020.16,2038.00,3484.93,3310.02,3597.04,350.69,348.41,1.20,0000 0000 0000 0000 000000
2015-05-16 09:34:24,0.05,0.05,0.00,23.91,26.74,29.25,4.71,24.75,1020.14,2038.00,3484.15,3309.69,3596.66,349.83,347.85,1.23,0000 0000 0000 0000 000000
2015-05-16 09:39:25,0.03,0.06,0.00,23.94,26.77,29.29,4.80,24.78,1020.29,2037.96,3483.91,3309.05,3596.04,350.38,348.17,1.26,0000 0000 0000 0000 000000
2015-05-16 09:44:27,0.02,0.06,0.00,23.94,26.80,29.30,4.76,24.76,1020.38,2037.92,3483.12,3308.98,3595.75,349.65,347.54,1.29,0000 0000 0000 0000 000000
2015-05-16 09:49:28,-0.02,0.06,0.00,23.96,26.83,29.33,4.76,24.73,1020.39,2037.54,3482.80,3308.35,3595.06,350.19,348.07,1.32,0000 0000 0000 0000 000000
2015-05-16 09:54:29,-0.02,0.06,0.00,23.99,26.86,29.34,4.72,24.74,1020.30,2037.10,3482.06,3308.00,3594.92,349.73,347.50,1.35,0000 0000 0000 0000 000000
2015-05-16 09:59:30,0.06,0.06,0.00,24.01,26.88,29.36,4.75,24.76,1020.40,2037.01,3481.58,3307.67,3594.11,349.77,347.56,1.38,0000 0000 0000 0000 000000
2015-05-16 10:04:31,0.02,0.06,0.00,24.02,26.91,29.37,4.77,24.68,1020.47,2037.00,3481.06,3307.13,3593.95,349.86,347.75,1.41,0000 0000 0000 0000 000000
2015-05-16 10:09:32,0.03,0.06,0.00,24.04,26.94,29.37,4.84,24.79,1020.46,2037.00,3480.82,3306.99,3593.22,350.51,348.42,1.44,0000 0000 0000 0000 000000
2015-05-16 10:14:34,0.05,0.06,0.00,24.07,26.96,29.38,4.73,24.80,1020.41,2036.99,3480.06,3306.53,3592.99,349.72,347.51,1.47,0000 0000 0000 0000 000000
2015-05-16 10:19:35,0.03,0.06,0.00,24.07,26.99,29.38,4.83,24.77,1020.45,2036.97,3479.84,3306.03,3592.65,350.58,348.54,1.50,0000 0000 0000 0000 000000
2015-05-16 10:24:36,-0.02,0.06,0.00,24.09,27.01,29.39,4.73,24.64,1020.43,2036.70,3479.07,3305.97,3592.02,349.89,347.60,1.53,0000 0000 0000 0000 000000
2015-05-16 10:29:37,-0.01,0.06,0.00,24.12,27.04,29.41,4.75,24.65,1020.49,2036.35,3478.89,3305.45,3591.86,350.21,347.72,1.56,0000 0000 0000 0000 000000
2015-05-16 10:34:39,0.01,0.06,0.00,24.15,27.06,29.42,4.71,24.70,1020.48,2036.14,3478.13,3305.02,3591.14,350.08,347.79,1.58,0000 0000 0000 0000 000000
2015-05-16 10:39:40,-0.01,0.06,0.00,24.16,27.09,29.46,4.75,24.71,1020.50,2036.03,3478.00,3304.99,3590.99,350.26,347.89,1.61,0000 0000 0000 0000 000000
2015-05-16 10:44:41,0.05,0.06,0.00,24.17,27.11,29.49,4.66,24.67,1020.48,2036.01,3477.41,3304.58,3590.66,349.90,347.54,1.64,0000 0000 0000 0000 000000
2015-05-16 10:49:42,0.03,0.06,0.00,24.18,27.14,29.52,4.69,24.66,1020.42,2036.00,3477.00,3304.02,3590.03,350.00,347.66,1.67,0000 0000 0000 0000 000000
2015-05-16 10:54:43,0.02,0.06,0.00,24.21,27.16,29.55,4.80,24.69,1020.39,2036.00,3476.48,3303.98,3589.90,349.97,347.51,1.70,0000 0000 0000 0000 000000
2015-05-16 10:59:44,0.05,0.07,0.00,24.23,27.18,29.59,4.73,24.62,1020.39,2036.00,3476.01,3303.44,3589.15,349.49,347.05,1.73,0000 0000 0000 0000 000000
2015-05-16 11:04:46,0.02,0.07,0.00,24.25,27.21,29.61,4.73,24.63,1020.43,2035.99,3475.81,3303.03,3589.00,349.98,347.67,1.76,0000 0000 0000 0000 000000
2015-05-16 11:09:47,0.02,0.07,0.00,24.27,27.23,29.63,4.82,24.69,1020.46,2035.93,3475.08,3302.98,3588.61,350.11,347.44,1.79,0000 0000 0000 0000 000000
2015-05-16 11:14:48,0.01,0.07,0.00,24.31,27.26,29.66,4.78,24.55,1020.52,2035.75,3474.94,3302.50,3588.03,350.14,347.35,1.82,0000 0000 0000 0000 000000
2015-05-16 11:19:50,-0.01,0.07,0.00,24.32,27.28,29.69,4.79,24.62,1020.52,2035.50,3474.26,3302.03,3587.99,350.32,348.00,1.85,0000 0000 0000 0000 000000
2015-05-16 11:24:51,-0.03,0.07,0.00,24.32,27.30,29.71,4.86,24.66,1020.52,2035.12,3473.99,3301.99,3587.33,350.16,347.61,1.88,0000 0000 0000 0000 000000
2015-05-16 11:29:53,0.01,0.07,0.00,24.35,27.32,29.73,4.70,24.53,1020.52,2035.05,3473.57,3301.90,3587.00,350.01,347.52,1.91,0000 0000 0000 0000 000000
2015-05-16 11:34:54,0.04,0.07,0.00,24.37,27.34,29.74,4.77,24.57,1020.52,2035.03,3473.04,3301.31,3586.99,350.04,347.44,1.94,0000 0000 0000 0000 000000
2015-05-16 11:39:55,0.03,0.07,0.00,24.37,27.35,29.77,4.76,24.57,1020.50,2035.01,3472.80,3301.01,3586.44,350.43,347.84,1.97,0000 0000 0000 0000 000000
2015-05-16 11:44:57,0.01,0.07,0.00,24.35,27.37,29.80,4.75,24.57,1020.51,2035.00,3472.13,3300.98,3586.02,349.85,347.34,1.99,0000 0000 0000 0000 000000
2015-05-16 11:49:58,0.02,0.07,0.00,24.33,27.38,29.83,4.77,24.51,1020.52,2035.00,3472.00,3300.69,3585.99,349.84,347.28,2.02,0000 0000 0000 0000 000000
2015-05-16 11:54:59,0.03,0.07,0.00,24.31,27.40,29.87,4.71,24.49,1020.52,2035.00,3471.82,3300.15,3585.72,349.83,347.30,2.05,0000 0000 0000 0000 000000
2015-05-16 12:00:00,0.03,0.07,0.00,24.27,27.40,29.91,4.72,24.53,1020.52,2034.99,3471.08,3300.00,3585.07,350.01,347.54,2.08,0000 0000 0000 0000 000000
2015-05-16 12:05:02,0.00,0.07,0.00,24.21,27.41,29.95,4.77,24.50,1020.52,2034.99,3470.98,3299.98,3585.00,350.21,347.70,2.11,0000 0000 0000 0000 000000
2015-05-16 12:10:04,0.04,0.07,0.00,24.16,27.42,29.97,4.77,24.55,1020.52,2034.96,3470.42,3299.74,3584.83,349.93,347.83,2.14,0000 0000 0000 0000 000000
2015-05-16 12:15:05,0.04,0.07,0.00,24.13,27.42,29.99,4.67,24.49,1020.50,2034.97,3470.01,3299.12,3584.17,350.38,348.21,2.17,0000 0000 0000 0000 000000
2015-05-16 12:20:06,0.00,0.07,0.00,24.09,27.42,30.00,4.67,24.52,1020.48,2034.98,3470.00,3299.03,3584.04,349.57,347.24,2.20,0000 0000 0000 0000 000000
2015-05-16 12:25:07,0.01,0.07,0.00,24.05,27.42,30.00,4.76,24.56,1020.49,2034.96,3469.67,3299.00,3584.00,350.12,347.99,2.23,0000 0000 0000 0000 000000
2015-05-16 12:30:09,0.01,0.08,0.00,24.02,27.42,30.03,4.76,24.57,1020.47,2034.95,3469.05,3298.99,3583.98,349.42,347.26,2.26,0000 0000 0000 0000 000000
2015-05-16 12:35:10,0.01,0.08,0.00,24.02,27.43,30.02,4.79,24.49,1020.44,2034.92,3468.98,3298.84,3583.66,350.13,348.08,2.29,0000 0000 0000 0000 000000
2015-05-16 12:40:11,0.04,0.08,0.00,23.99,27.43,30.05,4.77,24.52,1020.48,2034.90,3468.76,3298.36,3583.06,350.12,347.97,2.32,0000 0000 0000 0000 000000
2015-05-16 12:45:13,0.03,0.08,0.00,23.97,27.43,30.07,4.75,24.55,1020.48,2034.92,3468.17,3298.15,3583.01,349.80,347.77,2.35,0000 0000 0000 0000 000000
2015-05-16 12:50:14,-0.00,0.08,0.00,23.95,27.42,30.09,4.84,24.64,1020.46,2034.91,3468.00,3298.03,3583.00,350.25,347.96,2.38,0000 0000 0000 0000 000000
2015-05-16 12:55:15,0.00,0.08,0.00,23.94,27.42,30.10,4.80,24.59,1020.31,2034.90,3467.90,3298.00,3583.00,350.12,348.05,2.40,0000 0000 0000 0000 000000
2015-05-16 13:00:16,0.02,0.08,0.00,23.92,27.42,30.08,4.75,24.60,1020.10,2034.87,3467.13,3297.98,3582.95,349.84,347.61,2.43,0000 0000 0000 0000 000000
2015-05-16 13:05:17,0.01,0.08,0.00,23.90,27.42,30.09,4.75,24.48,1020.05,2034.89,3467.00,3297.96,3582.68,350.02,347.76,2.46,0000 0000 0000 0000 000000
2015-05-16 13:10:19,0.02,0.08,0.00,23.87,27.42,30.10,4.84,24.52,1020.04,2034.92,3466.98,3297.83,3582.27,350.56,348.45,2.49,0000 0000 0000 0000 000000
2015-05-16 13:15:20,0.03,0.08,0.00,23.86,27.42,30.12,4.68,24.47,1020.04,2034.89,3466.62,3297.28,3582.02,349.41,347.23,2.52,0000 0000 0000 0000 000000
2015-05-16 13:20:21,0.02,0.08,0.00,23.83,27.41,30.14,4.79,24.50,1020.04,2034.94,3466.25,3297.09,3581.98,350.12,347.93,2.55,0000 0000 0000 0000 000000
2015-05-16 13:25:22,-0.01,0.08,0.00,23.79,27.40,30.14,4.79,24.46,1020.05,2034.78,3466.04,3297.00,3581.58,350.16,348.25,2.58,0000 0000 0000 0000 000000
2015-05-16 13:30:24,-0.05,0.08,0.00,23.77,27.40,30.16,4.74,24.57,1020.05,2034.54,3466.00,3296.98,3581.09,349.65,347.72,2.61,0000 0000 0000 0000 000000
2015-05-16 13:35:25,0.02,0.08,0.00,23.74,27.40,30.18,4.77,24.55,1020.06,2034.40,3465.52,3296.90,3580.99,350.51,348.57,2.64,0000 0000 0000 0000 000000
2015-05-16 13:40:26,0.04,0.08,0.00,23.70,27.39,30.19,4.71,24.53,1020.05,2034.27,3465.01,3296.23,3580.86,349.69,347.76,2.67,0000 0000 0000 0000 000000
2015-05-16 13:45:27,0.07,0.08,0.00,23.67,27.37,30.18,4.79,24.55,1020.05,2034.54,3464.61,3296.05,3580.29,349.86,347.95,2.70,0000 0000 0000 0000 000000
2015-05-16 13:50:28,0.05,0.08,0.00,23.65,27.37,30.19,4.78,24.54,1020.04,2034.77,3464.04,3296.01,3580.04,350.07,348.27,2.73,0000 0000 0000 0000 000000
2015-05-16 13:55:29,0.02,0.09,0.00,23.61,27.37,30.19,4.70,24.52,1020.04,2034.81,3463.75,3295.98,3580.00,349.99,348.07,2.76,0000 0000 0000 0000 000000
2015-05-16 14:00:30,0.06,0.09,0.00,23.57,27.35,30.18,4.74,24.48,1020.04,2034.86,3463.02,3295.55,3579.71,349.95,348.24,2.79,0000 0000 0000 0000 000000
2015-05-16 14:05:32,0.02,0.09,0.00,23.56,27.35,30.19,4.78,24.32,1020.03,2034.88,3462.64,3295.10,3579.09,349.83,347.93,2.81,0000 0000 0000 0000 000000
2015-05-16 14:10:33,0.02,0.09,0.00,23.54,27.35,30.17,4.83,24.44,1020.03,2034.84,3462.05,3295.00,3578.98,349.98,348.26,2.84,0000 0000 0000 0000 000000
2015-05-16 14:15:34,0.05,0.09,0.00,23.50,27.35,30.18,4.81,24.38,1020.03,2034.85,3461.55,3294.75,3578.34,350.31,348.59,2.87,0000 0000 0000 0000 000000
2015-05-16 14:20:35,0.05,0.09,0.00,23.47,27.33,30.18,4.76,24.23,1020.02,2034.81,3460.79,3294.05,3577.99,349.37,347.84,2.90,0000 0000 0000 0000 000000
2015-05-16 14:25:36,0.04,0.09,0.00,23.46,27.32,30.16,4.79,24.25,1020.01,2034.89,3460.05,3293.95,3577.37,349.78,347.96,2.93,0000 0000 0000 0000 000000
2015-05-16 14:30:38,0.06,0.09,0.00,23.42,27.32,30.17,4.80,24.26,1020.00,2034.87,3459.25,3293.26,3577.00,350.41,348.51,2.96,0000 0000 0000 0000 000000
2015-05-16 14:35:39,0.05,0.10,0.00,23.40,27.31,30.17,4.72,24.24,1019.91,2034.93,3458.70,3293.00,3576.60,349.90,348.08,2.99,0000 0000 0000 0000 000000
2015-05-16 14:40:41,0.03,0.10,0.00,23.39,27.30,30.16,4.76,24.39,1019.75,2034.94,3457.94,3292.68,3576.02,349.82,348.20,3.02,0000 0000 0000 0000 000000
2015-05-16 14:45:42,0.06,0.10,0.00,23.35,27.30,30.14,4.80,24.44,1019.83,2034.96,3457.09,3292.05,3575.67,350.36,348.77,3.05,0000 0000 0000 0000 000000
2015-05-16 14:50:44,0.03,0.10,0.00,23.32,27.29,30.17,4.80,24.43,1019.81,2034.97,3456.30,3291.97,3575.02,350.24,348.53,3.08,0000 0000 0000 0000 000000
2015-05-16 14:55:45,0.08,0.10,0.00,23.30,27.27,30.17,4.77,24.56,1019.68,2034.95,3455.42,3291.15,3574.40,349.57,347.81,3.11,0000 0000 0000 0000 000000
2015-05-16 15:00:46,0.02,0.10,0.00,23.27,27.27,30.15,4.83,24.48,1019.57,2034.94,3454.57,3290.96,3573.90,350.65,348.96,3.14,0000 0000 0000 0000 000000
2015-05-16 15:05:47,0.06,0.11,0.00,23.25,27.25,30.14,4.82,24.42,1019.57,2034.97,3454.04,3290.42,3573.16,350.22,348.65,3.17,0000 0000 0000 0000 000000
2015-05-16 15:10:49,0.03,0.11,0.00,23.24,27.25,30.11,4.73,24.43,1019.56,2034.98,3453.64,3290.01,3572.94,349.80,348.37,3.20,0000 0000 0000 0000 000000
2015-05-16 15:15:50,0.07,0.11,0.00,23.22,27.25,30.10,4.81,24.53,1019.56,2034.98,3452.58,3289.74,3572.18,349.94,348.33,3.22,0000 0000 0000 0000 000000
2015-05-16 15:20:51,0.05,0.11,0.00,23.25,27.24,30.09,4.78,24.45,1019.55,2034.99,3451.43,3289.03,3571.78,349.93,348.15,3.25,0000 0000 0000 0000 000000
2015-05-16 15:25:52,0.03,0.11,0.00,23.48,27.22,30.06,4.83,24.34,1019.55,2034.98,3450.93,3288.80,3571.03,350.18,348.17,3.28,0000 0000 0000 0000 000000
2015-05-16 15:30:53,0.05,0.11,0.00,23.46,27.22,30.03,4.82,24.61,1019.55,2034.99,3450.13,3288.11,3570.95,350.28,348.45,3.31,0000 0000 0000 0000 000000
2015-05-16 15:35:55,0.01,0.11,0.00,23.30,27.22,30.08,4.78,24.46,1019.55,2034.99,3450.00,3288.01,3570.74,349.34,347.62,3.34,0000 0000 0000 0000 000000
2015-05-16 15:40:56,0.03,0.11,0.00,23.26,27.22,30.06,4.74,24.48,1019.55,2034.99,3449.67,3287.97,3570.03,349.22,347.66,3.37,0000 0000 0000 0000 000000
2015-05-16 15:45:57,0.08,0.12,0.00,23.25,27.22,30.08,4.78,24.51,1019.55,2034.97,3448.69,3287.24,3569.38,349.62,348.03,3.40,0000 0000 0000 0000 000000
2015-05-16 15:50:58,0.02,0.12,0.00,23.19,27.22,30.08,4.78,24.43,1019.55,2034.99,3447.82,3287.00,3569.01,349.88,348.07,3.43,0000 0000 0000 0000 000000
2015-05-16 15:55:59,0.08,0.12,0.00,23.36,27.22,30.01,4.72,24.49,1019.55,2034.99,3446.79,3286.44,3568.61,349.55,347.52,3.46,0000 0000 0000 0000 000000
2015-05-16 16:01:00,0.03,0.12,0.00,23.48,27.22,30.02,4.80,24.53,1019.55,2034.99,3445.85,3285.98,3568.01,350.05,348.19,3.49,0000 0000 0000 0000 000000